Grand Forks AFB, ND

8:44 PM CDT on April 30, 2017 (GMT -0500)
Grand Forks Air Force Base

Weather History for KRDR - October, 2012

Change the Weather History Date:

Monday, October 15, 2012

  Actual Average Record
Temperature  
Mean Temperature 48 °F -  
Max Temperature 66 °F 52 °F 73 °F (1996)
Min Temperature 30 °F 32 °F 19 °F (2002)
Degree Days  
Heating Degree Days 17    
Moisture  
Dew Point 37 °F    
Average Humidity 70    
Maximum Humidity 92    
Minimum Humidity 39    
Precipitation  
Precipitation 0.00 in - - ()
Sea Level Pressure  
Sea Level Pressure 29.75 in    
Wind  
Wind Speed 9 mph (SSE)    
Max Wind Speed 21 mph    
Max Gust Speed 29 mph    
Visibility 10 miles    
Events Rain    
Averages and records for this station are not official NWS values.
T = Trace of Precipitation, MM = Missing Value Source: NWS Daily Summary

Daily Weather History Graph

Daily Weather History Graph

Search for Another Location

Airport or City:

Trip Planner

Search our weather history database for the weather conditions in past years. The results will help you decide how hot, cold, wet, or windy it might be!

Date:

Astronomy

Oct. 15, 2012 Rise Set
Actual Time 7:49 AM CDT 6:40 PM CDT
Civil Twilight 7:18 AM CDT 7:11 PM CDT
Nautical Twilight 6:42 AM CDT 7:47 PM CDT
Astronomical Twilight 6:06 AM CDT 8:23 PM CDT
Moon 8:06 AM CDT (10/15) 6:34 PM CDT (10/15)
Length of Visible Light 11h 53m
Length of Day
10h 50m
New Moon, 0% of the Moon is Illuminated
Oct 15
New Moon
Oct 21
First Quarter
Oct 29
Full
Nov 6
Last Quarter
Nov 13
New

Hourly Weather History & Observations

Time (CDT) Temp. Windchill Dew Point Humidity Pressure Visibility Wind Dir Wind Speed Gust Speed Precip Events Conditions
12:55 AM 37.2 °F 33.6 °F 34.0 °F 88% 29.91 in 10.0 mi SSE 4.6 mph - N/A   Clear
1:55 AM 34.0 °F 28.8 °F 31.5 °F 90% 29.91 in 10.0 mi SE 5.8 mph - N/A   Clear
2:55 AM 30.9 °F 26.2 °F 28.6 °F 91% 29.90 in 10.0 mi South 4.6 mph - N/A   Clear
3:55 AM 30.4 °F 26.9 °F 28.0 °F 91% 29.89 in 10.0 mi South 3.5 mph - N/A   Clear
4:55 AM 30.6 °F 25.8 °F 28.2 °F 91% 29.87 in 10.0 mi South 4.6 mph - N/A   Clear
5:55 AM 31.1 °F 25.4 °F 29.1 °F 92% 29.87 in 10.0 mi SSE 5.8 mph - N/A   Clear
6:55 AM 34.2 °F 27.5 °F 31.5 °F 90% 29.86 in 10.0 mi SSE 8.1 mph - N/A   Clear
7:55 AM 31.3 °F 25.6 °F 29.3 °F 92% 29.86 in 10.0 mi SSE 5.8 mph - N/A   Clear
8:55 AM 38.1 °F 31.2 °F 34.7 °F 87% 29.85 in 10.0 mi SSE 10.4 mph - N/A   Clear
9:55 AM 41.2 °F 34.5 °F 37.0 °F 85% 29.84 in 10.0 mi SSE 11.5 mph - N/A   Partly Cloudy
10:01 AM 41.0 °F 34.7 °F 37.4 °F 87% 29.84 in 10.0 mi South 10.4 mph - N/A   Partly Cloudy
10:55 AM 43.2 °F 37.0 °F 39.4 °F 86% 29.81 in 10.0 mi SSE 11.5 mph - 0.00 in   Light Drizzle
11:00 AM 44.6 °F 38.4 °F 41.0 °F 87% 29.80 in 10.0 mi SSE 12.7 mph - N/A   Overcast
11:55 AM 49.3 °F - 39.9 °F 70% 29.78 in 10.0 mi South 17.3 mph - 0.00 in   Overcast
12:04 PM 50.0 °F - 41.0 °F 71% 29.78 in 10.0 mi South 17.3 mph - N/A Rain Light Rain
12:12 PM 50.0 °F - 41.0 °F 71% 29.77 in 10.0 mi South 15.0 mph 24.2 mph N/A   Overcast
12:55 PM 53.8 °F - 39.9 °F 59% 29.75 in 10.0 mi South 18.4 mph 21.9 mph 0.00 in   Mostly Cloudy
1:55 PM 58.3 °F - 39.4 °F 49% 29.71 in 10.0 mi South 17.3 mph 28.8 mph N/A   Mostly Cloudy
2:55 PM 59.4 °F - 39.6 °F 48% 29.67 in 10.0 mi SSE 20.7 mph 27.6 mph N/A   Overcast
3:55 PM 61.7 °F - 39.9 °F 45% 29.65 in 10.0 mi South 17.3 mph 25.3 mph N/A   Mostly Cloudy
4:55 PM 66.0 °F - 40.1 °F 39% 29.63 in 10.0 mi South 18.4 mph - N/A   Overcast
5:55 PM 63.9 °F - 39.9 °F 41% 29.61 in 10.0 mi SSE 13.8 mph - N/A   Clear
6:55 PM 58.6 °F - 39.9 °F 50% 29.60 in 10.0 mi SE 11.5 mph - N/A   Clear
7:55 PM 56.7 °F - 39.6 °F 53% 29.59 in 10.0 mi SSE 11.5 mph - N/A   Clear
8:55 PM 59.7 °F - 39.2 °F 47% 29.58 in 10.0 mi SSW 12.7 mph - N/A   Clear
9:55 PM 56.8 °F - 39.9 °F 53% 29.58 in 10.0 mi South 8.1 mph - N/A   Clear
10:55 PM 54.5 °F - 40.1 °F 58% 29.57 in 10.0 mi South 8.1 mph - N/A   Clear
11:55 PM 54.0 °F - 40.1 °F 59% 29.56 in 10.0 mi SSW 8.1 mph - N/A   Clear